Temperature
8 7 7 7 8 9 9 8 8 9 10 10 9 9 10 10 10 9 10 11 11 11 12 12 11 11 11 11 11 11 11 11 11 10 10 10 10 11 11 11 11 11 11 11
6 7 8 8 8 8 8 8 8 9 10 10 9 9 9 9 9 10 10 10 11 11 11 11 11 11 11 11 11 11 10 10 10 10 10 10 10 10 10 10 11 11 11 11
7 8 9 8 8 8 8 8 8 8 9 9 9 8 8 8 9 10 10 10 10 10 10 10 10 10 10 10 10 10 10 10 10 10 10 10 9 9 10 10 10 10 10 11
7 8 8 8 8 8 8 9 9 8 8 7 8 7 7 7 8 8 8 9 10 10 10 10 10 10 10 10 10 10 10 10 10 10 10 9 9 9 10 10 10 10 10 10
6 7 8 8 8 8 8 9 9 8 7 7 6 6 7 7 7 8 7 9 10 10 10 10 10 10 10 10 10 10 10 9 9 9 9 9 9 9 9 9 9 9 9 9
7 7 8 8 8 8 8 8 7 7 6 6 6 6 6 6 8 8 8 8 9 9 9 9 9 9 9 9 9 9 9 9 9 9 9 9 9 9 8 9 9 9 9 9
6 7 7 8 7 7 7 7 6 6 6 6 6 6 6 7 7 8 8 8 8 9 9 9 9 9 9 9 9 9 9 8 8 8 8 8 8 8 8 8 8 8 8 8
5 5 7 7 7 6 6 7 6 6 6 6 6 6 6 7 7 8 8 8 8 8 8 8 9 9 8 8 8 8 8 8 8 8 8 8 8 8 8 8 8 8 8 8
4 5 6 7 7 7 6 6 6 6 5 5 5 5 6 7 7 6 6 7 7 8 8 8 8 8 8 8 8 8 8 8 7 7 7 7 7 7 7 7 7 7 8 8
3 4 5 6 7 7 6 6 5 5 6 6 6 5 6 6 6 6 5 5 6 7 8 8 8 8 8 8 8 8 7 7 7 7 7 7 7 7 7 7 7 7 7 7
3 3 4 5 5 5 5 5 5 5 5 5 6 6 6 6 6 5 5 5 6 6 7 7 7 7 7 7 7 7 7 7 7 7 6 6 6 6 6 6 6 6 6 7
2 2 2 3 5 5 5 5 4 5 4 4 5 5 6 6 5 5 4 5 5 6 6 6 7 6 6 6 6 6 6 6 6 6 6 6 6 6 6 6 6 6 6 6
2 1 1 2 3 4 4 4 4 4 3 3 4 5 5 4 4 4 4 4 5 5 5 6 6 6 6 6 6 6 6 6 6 6 6 6 6 6 6 6 5 5 5 5
2 1 1 2 2 2 2 3 3 3 2 3 3 4 5 4 4 4 4 4 4 4 5 5 5 5 5 5 6 6 6 6 6 5 5 5 5 5 5 5 5 5 5 5
0 -0 0 1 2 2 2 3 3 3 2 2 3 4 4 4 3 3 3 3 3 3 4 4 4 5 5 5 5 5 5 5 5 5 5 5 5 5 5 4 4 4 4 4
-1 -1 -1 0 2 2 2 2 3 3 3 3 3 3 3 3 3 3 3 3 3 3 3 3 4 4 4 4 5 5 5 5 5 5 5 4 4 4 4 4 4 4 4 4
-2 -2 -1 -1 1 1 0 1 2 2 2 3 2 3 3 2 2 2 2 2 3 3 3 3 3 3 4 4 4 4 4 4 4 4 4 4 4 4 4 4 4 3 3 3
-3 -3 -2 -2 -1 -1 0 1 1 1 1 1 2 2 2 2 2 3 3 3 2 3 3 3 3 3 3 3 3 3 3 3 3 3 4 3 3 3 3 3 3 3 3 3
-2 -2 -3 -2 -2 -1 -0 0 -0 0 0 1 1 1 1 2 2 2 2 2 2 3 3 2 3 3 3 3 3 3 3 3 3 3 3 3 3 3 3 3 3 2 2 2
-2 -3 -3 -3 -2 -2 -1 -1 -0 -0 -0 -1 -0 0 0 1 0 0 2 2 2 2 2 2 2 2 2 2 2 2 2 2 2 2 2 2 2 2 2 2 2 2 2 2
-3 -4 -4 -3 -3 -3 -2 -1 -0 -1 -1 -1 -1 -1 -0 -0 0 1 1 1 1 1 1 1 1 1 1 2 2 1 1 2 2 2 2 2 1 1 1 1 1 1 1 1
-4 -4 -4 -4 -4 -3 -2 -2 -2 -2 -2 -2 -2 -1 -1 -1 -0 -0 -0 -0 -0 -0 -0 0 0 0 0 1 1 1 1 1 1 1 1 1 1 1 1 1 1 1 1 1
-4 -4 -4 -4 -4 -3 -3 -3 -2 -2 -2 -2 -2 -2 -2 -2 -2 -1 -1 -1 -1 -1 -1 -1 -1 -1 -1 -1 -0 0 0 0 0 1 0 0 0 0 0 0 0 0 0 0
-5 -4 -4 -4 -4 -4 -3 -3 -3 -3 -3 -3 -3 -3 -2 -3 -3 -3 -3 -2 -2 -2 -1 -1 -1 -1 -2 -1 -1 -1 -1 -0 -0 -0 -0 -0 -0 -0 -0 -0 -0 -0 -0 -0
-5 -5 -5 -5 -5 -4 -4 -4 -4 -4 -4 -3 -3 -3 -3 -3 -3 -3 -3 -3 -3 -3 -2 -2 -2 -2 -2 -2 -2 -2 -1 -1 -1 -1 -1 -1 -1 -1 -1 -1 -1 -1 -1 -1
-6 -6 -6 -6 -5 -5 -5 -5 -5 -4 -4 -4 -4 -4 -4 -4 -4 -4 -4 -4 -4 -3 -3 -3 -3 -3 -3 -2 -2 -2 -2 -1 -1 -1 -1 -1 -1 -1 -1 -1 -1 -1 -1 -2
Wind_Speed
6 6 13 17 18 8 6 7 8 7 5 5 11 14 14 10 7 9 9 9 9 9 7 6 6 5 5 5 6 6 6 5 4 3 3 3 4 4 4 3 5 6 7 8
4 15 16 9 10 11 8 8 9 7 4 6 8 13 12 10 9 10 10 11 10 7 5 4 5 5 6 6 6 6 6 6 5 5 4 3 3 3 4 3 4 5 6 7
16 8 10 10 11 13 15 13 11 7 4 4 4 9 8 7 6 7 8 8 8 9 8 6 6 6 6 6 7 7 6 6 5 5 3 3 2 1 2 3 3 3 5 5
14 10 7 10 13 14 14 11 10 8 5 5 3 6 7 6 6 7 8 7 7 7 7 7 7 6 7 8 7 6 6 6 5 6 6 6 5 3 3 3 2 2 3 4
10 10 11 14 14 13 8 6 8 8 7 6 5 6 8 4 6 8 8 8 7 7 7 7 7 7 7 7 7 6 7 6 5 6 7 7 5 3 2 2 3 3 2 2
9 6 10 11 8 11 5 2 1 2 2 8 10 8 8 6 8 7 8 7 6 5 5 5 5 4 4 5 6 6 7 7 6 6 6 6 6 5 3 3 4 3 2 1
9 9 7 5 5 6 6 5 3 4 5 9 7 7 9 7 7 8 9 7 6 5 5 4 4 4 4 5 6 6 8 7 7 7 7 6 6 6 5 4 4 4 3 1
7 9 9 7 9 9 11 11 8 8 7 5 4 8 7 6 5 5 5 5 4 4 4 4 5 5 5 6 7 8 8 8 7 7 7 6 6 5 4 4 4 4 3 3
6 7 3 7 5 10 8 10 6 4 2 3 5 5 6 2 1 2 3 3 4 4 4 4 4 5 6 6 7 9 9 8 8 8 7 6 6 6 5 4 3 3 3 3
2 5 5 4 2 5 6 7 5 6 6 6 5 5 5 4 5 3 3 4 3 3 3 3 3 4 4 5 6 6 7 8 8 8 7 6 6 6 5 5 4 4 3 3
2 4 4 2 7 8 5 5 5 6 5 6 5 6 4 7 6 6 5 4 3 2 2 3 2 2 3 3 5 5 6 7 7 8 7 7 6 6 6 5 5 4 3 4
3 2 5 7 5 5 5 6 5 6 5 5 4 6 3 2 3 3 3 2 1 1 1 2 2 2 3 4 5 5 6 7 7 7 7 7 6 6 6 6 6 5 4 4
3 1 2 3 2 0 2 2 2 2 2 3 5 5 3 3 2 1 1 1 0 0 0 1 1 2 3 4 5 5 6 6 6 7 7 7 6 6 6 6 6 5 5 4
3 3 5 7 4 3 4 5 4 2 3 5 6 6 6 4 3 2 2 1 1 1 1 1 2 2 3 4 5 6 6 6 7 7 7 7 7 7 6 6 6 6 5 5
2 3 5 7 6 4 6 8 7 7 7 7 8 7 8 6 5 4 3 2 2 2 2 2 2 2 3 4 4 5 5 6 7 7 7 7 6 6 6 6 5 5 5 5
3 3 4 6 5 4 6 7 9 9 8 8 7 7 5 4 1 1 2 3 4 4 4 3 3 3 3 5 5 5 6 6 6 7 6 6 6 6 6 6 6 5 5 4
3 2 2 5 4 3 4 5 5 5 3 5 8 8 5 3 3 4 5 5 6 6 5 4 3 3 3 4 5 6 6 6 6 6 6 6 6 6 6 6 6 6 5 5
4 3 2 3 1 4 3 1 1 3 2 3 3 5 4 5 5 4 3 4 5 5 5 4 4 3 3 3 4 4 5 6 6 6 5 6 6 6 6 6 6 6 5 5
6 4 2 1 2 3 4 4 3 3 4 4 4 6 6 4 3 4 3 2 4 4 4 4 4 3 3 3 4 5 5 6 6 6 5 6 7 7 6 6 6 5 5 5
2 3 2 2 2 3 4 8 7 2 4 5 6 6 6 4 3 5 5 3 2 2 1 1 2 2 2 2 4 5 6 6 6 5 5 5 6 6 6 6 5 4 5 4
2 0 2 2 3 3 6 10 5 1 4 7 7 6 5 4 5 5 3 3 2 1 1 2 3 2 2 2 4 5 5 5 5 4 4 5 5 5 5 5 4 5 4 4
1 1 1 0 1 3 8 7 3 4 6 6 6 5 4 4 3 3 3 3 3 3 2 2 3 2 2 2 4 4 4 3 4 5 4 4 4 4 4 5 4 4 5 4
2 1 1 1 2 4 6 5 5 5 5 6 6 6 4 4 4 4 3 3 3 3 3 2 3 3 2 2 3 4 2 4 5 4 4 3 3 3 4 4 4 4 4 4
4 4 1 2 3 5 7 8 8 7 6 6 5 5 4 4 3 3 3 3 4 3 3 3 4 3 2 2 2 2 3 4 5 5 3 3 3 3 3 3 3 4 4 4
4 4 3 2 5 7 7 9 9 9 8 7 7 6 5 4 4 3 3 3 3 3 3 3 3 3 2 2 2 2 3 4 5 4 3 3 3 3 2 2 2 3 3 5
4 3 2 3 5 5 8 10 10 9 9 8 8 8 7 5 3 3 3 2 2 2 3 3 3 3 2 2 2 2 2 3 5 3 3 2 2 2 2 2 1 0 1 2
Wind_Direction
188 194 212 210 207 212 194 207 232 243 231 213 234 249 256 253 236 235 234 226 221 220 219 201 195 190 180 176 172 172 173 174 161 161 164 171 188 180 175 175 174 174 170 166
187 225 226 212 210 225 233 239 248 270 251 226 250 259 258 248 236 229 226 224 215 211 207 197 191 182 180 183 183 176 178 177 175 177 178 175 178 186 178 168 161 169 165 165
209 221 204 205 211 218 231 230 232 239 304 288 284 285 254 250 235 238 231 218 202 197 198 197 193 193 188 188 188 184 181 178 175 168 150 128 100 90 130 156 167 157 158 159
227 234 204 208 218 208 236 226 225 230 238 260 220 274 266 244 248 237 231 217 206 202 197 194 192 193 195 197 191 185 178 170 167 162 156 154 153 173 188 177 164 147 140 150
226 210 210 219 221 204 221 203 211 220 218 251 227 242 272 239 240 236 223 213 207 202 192 192 193 195 197 193 186 184 174 166 163 164 167 165 158 167 173 150 141 144 130 137
238 221 210 218 217 205 191 156 189 184 185 246 218 208 268 222 217 218 213 204 198 196 194 195 191 185 190 186 178 174 169 170 166 164 166 165 158 153 153 151 157 156 150 143
245 240 228 190 188 195 174 159 190 214 217 239 189 201 248 237 223 209 203 196 193 187 180 180 177 180 187 184 179 175 172 175 172 167 167 167 162 157 166 168 167 160 155 146
222 243 216 200 195 195 198 184 189 201 211 246 197 219 249 253 231 207 190 182 183 190 184 188 190 186 189 186 182 178 176 177 175 174 173 166 159 159 168 174 168 168 166 160
222 244 236 212 191 173 186 205 197 166 196 229 238 256 294 281 188 165 161 168 194 203 193 194 193 188 187 185 186 184 180 177 175 172 168 163 162 161 164 160 155 160 152 140
239 261 262 224 161 198 182 169 160 181 190 223 241 234 230 220 216 202 181 194 210 204 191 191 193 193 193 189 181 173 173 174 172 171 171 168 165 167 159 151 150 154 150 139
245 234 277 215 198 196 174 183 189 186 194 192 225 249 228 204 203 197 201 200 194 193 199 195 193 187 175 163 161 163 166 165 165 165 163 162 165 161 157 157 157 152 150 146
263 221 250 243 248 211 180 188 177 191 218 200 203 254 295 206 203 175 170 180 191 180 215 197 170 149 155 163 165 167 167 167 170 166 156 153 151 152 154 156 155 151 154 155
303 231 284 307 306 62 186 188 206 185 159 193 205 247 329 17 18 54 141 184 217 35 56 165 157 167 177 175 173 173 173 170 164 155 152 151 154 154 160 161 158 156 161 159
310 232 219 230 246 229 237 250 241 183 203 225 225 246 289 318 313 298 270 251 235 231 204 186 188 192 188 183 177 175 177 170 160 156 156 162 166 162 161 161 161 161 164 165
356 267 261 265 268 258 249 241 235 232 223 223 239 245 260 258 250 239 231 242 247 250 233 212 201 204 193 182 179 178 175 172 164 160 163 169 163 153 150 151 156 155 154 159
340 278 294 279 261 261 271 254 236 236 236 239 250 262 278 280 278 250 217 219 237 242 235 227 221 211 199 190 185 181 178 177 167 165 167 162 153 148 149 148 145 143 143 145
291 276 292 276 276 301 271 266 242 220 220 223 243 260 283 291 267 245 239 233 229 231 228 222 222 213 212 208 194 187 183 171 164 165 164 160 155 152 157 153 146 149 153 150
230 249 240 274 302 224 246 275 252 219 273 267 267 296 296 273 266 260 242 226 239 237 229 224 218 210 209 201 193 182 169 161 160 160 162 161 157 155 156 152 153 157 158 161
208 206 213 227 232 264 302 326 316 260 281 310 299 309 311 306 321 311 299 262 249 235 234 226 217 204 185 182 176 161 159 159 157 160 164 166 160 156 156 157 161 163 162 164
184 191 198 215 236 248 301 310 310 259 271 325 327 306 308 329 298 289 310 311 321 317 238 181 157 135 144 167 156 152 157 156 163 167 165 160 158 159 164 170 170 165 166 168
345 336 214 226 235 268 316 322 343 142 282 321 319 313 312 283 263 286 319 336 345 6 73 106 119 125 142 146 138 149 155 167 171 157 149 148 153 156 164 167 167 163 162 160
323 344 319 221 240 289 334 351 5 296 308 324 333 331 322 312 324 353 7 15 29 46 59 85 100 92 93 123 133 147 165 162 140 137 141 149 154 159 155 153 160 164 162 162
1 333 274 242 252 308 340 340 329 329 331 332 336 337 349 353 357 9 19 27 31 53 55 66 93 80 54 77 126 146 160 137 131 132 140 150 147 147 154 158 166 171 171 172
342 358 7 317 318 336 344 352 351 352 348 340 340 346 1 359 0 12 21 27 30 32 51 68 85 85 58 50 92 136 138 135 133 136 140 142 140 142 150 161 174 177 181 183
327 340 337 301 316 338 353 352 346 348 352 355 358 3 7 12 8 9 17 21 28 24 33 66 89 91 62 50 60 77 120 128 130 135 140 141 148 155 153 157 181 188 203 200
356 345 334 306 316 320 319 334 343 351 355 356 1 4 4 10 17 16 17 16 33 47 54 63 67 68 53 56 53 50 92 121 126 130 138 150 152 153 155 152 127 68 192 213
Height
1479 1482 1478 1475 1476 1477 1479 1481 1481 1477 1473 1475 1474 1470 1466 1463 1464 1463 1462 1463 1463 1465 1467 1469 1471 1472 1474 1475 1477 1478 1480 1481 1483 1485 1486 1487 1489 1491 1494 1497 1499 1501 1503 1505
1478 1474 1467 1471 1474 1477 1478 1479 1479 1475 1472 1473 1472 1467 1462 1459 1459 1457 1457 1457 1458 1460 1462 1464 1466 1468 1469 1470 1472 1474 1475 1477 1479 1481 1483 1485 1486 1488 1490 1493 1496 1498 1500 1502
1467 1462 1464 1468 1471 1473 1473 1475 1475 1475 1472 1470 1471 1467 1460 1454 1453 1453 1452 1452 1453 1455 1457 1459 1461 1463 1465 1466 1468 1470 1472 1474 1476 1478 1480 1482 1484 1485 1486 1489 1492 1494 1497 1499
1463 1460 1461 1463 1464 1467 1468 1466 1469 1471 1476 1477 1473 1475 1460 1454 1451 1449 1448 1448 1449 1451 1453 1455 1457 1459 1460 1462 1464 1466 1468 1470 1472 1474 1476 1478 1479 1481 1483 1485 1488 1491 1494 1496
1456 1455 1457 1458 1457 1460 1462 1461 1465 1468 1472 1476 1474 1475 1459 1453 1451 1447 1445 1444 1445 1448 1449 1451 1453 1454 1456 1458 1460 1462 1465 1467 1469 1471 1473 1475 1477 1479 1482 1483 1485 1488 1491 1493
1451 1450 1450 1450 1452 1455 1458 1462 1465 1469 1473 1474 1467 1472 1458 1452 1444 1441 1440 1441 1442 1444 1446 1448 1449 1451 1453 1454 1456 1459 1461 1463 1466 1468 1470 1472 1474 1477 1479 1481 1482 1485 1488 1490
1450 1447 1445 1446 1450 1453 1456 1464 1470 1472 1473 1464 1458 1461 1452 1441 1437 1435 1436 1437 1439 1441 1443 1444 1446 1447 1449 1451 1452 1455 1457 1460 1463 1465 1467 1470 1472 1474 1477 1478 1480 1482 1484 1487
1451 1447 1441 1441 1443 1447 1450 1454 1459 1461 1461 1461 1457 1456 1446 1436 1433 1432 1433 1435 1437 1439 1440 1441 1442 1444 1445 1447 1449 1451 1453 1456 1459 1462 1465 1467 1469 1472 1475 1476 1479 1480 1482 1484
1448 1444 1436 1435 1436 1441 1446 1449 1448 1455 1458 1460 1456 1450 1442 1433 1432 1432 1433 1434 1435 1436 1437 1438 1439 1441 1442 1444 1446 1448 1451 1454 1457 1459 1462 1465 1467 1469 1472 1474 1477 1479 1481 1482
1449 1447 1438 1435 1435 1436 1438 1442 1450 1453 1454 1452 1448 1447 1442 1435 1433 1433 1433 1433 1433 1434 1435 1436 1437 1438 1440 1441 1444 1446 1449 1451 1454 1457 1459 1462 1464 1466 1469 1472 1475 1477 1478 1480
1449 1449 1442 1437 1435 1436 1439 1442 1442 1447 1448 1447 1447 1444 1431 1430 1429 1430 1431 1431 1432 1433 1434 1434 1435 1436 1437 1439 1442 1444 1446 1449 1451 1454 1457 1459 1462 1465 1467 1469 1472 1474 1476 1478
1448 1448 1446 1439 1433 1431 1434 1437 1440 1444 1445 1445 1444 1441 1427 1427 1427 1429 1430 1431 1432 1433 1433 1433 1434 1435 1436 1438 1440 1442 1444 1446 1448 1451 1454 1456 1459 1462 1464 1467 1469 1472 1474 1476
1449 1449 1448 1441 1439 1437 1436 1438 1439 1440 1445 1447 1444 1440 1428 1428 1428 1429 1430 1431 1431 1432 1432 1432 1432 1433 1434 1436 1437 1439 1441 1444 1446 1448 1451 1454 1457 1459 1462 1464 1467 1469 1472 1474
1448 1448 1447 1443 1437 1438 1439 1438 1438 1442 1446 1445 1441 1436 1431 1430 1430 1430 1430 1430 1430 1431 1431 1431 1431 1432 1432 1434 1435 1437 1439 1442 1444 1446 1449 1452 1454 1457 1460 1462 1465 1467 1469 1472
1449 1448 1444 1440 1436 1436 1435 1435 1435 1437 1439 1443 1437 1434 1430 1429 1429 1429 1429 1429 1429 1429 1429 1429 1429 1430 1431 1432 1434 1435 1437 1439 1442 1444 1447 1450 1452 1455 1457 1460 1462 1464 1467 1469
1450 1450 1445 1440 1435 1435 1434 1432 1432 1432 1433 1433 1432 1431 1428 1428 1428 1427 1428 1428 1427 1427 1427 1428 1428 1429 1429 1430 1432 1433 1435 1437 1440 1442 1444 1447 1450 1452 1455 1457 1460 1462 1464 1467
1452 1451 1448 1443 1436 1435 1437 1434 1431 1430 1430 1431 1431 1429 1428 1427 1427 1426 1425 1425 1424 1424 1425 1425 1425 1426 1427 1428 1429 1431 1433 1435 1437 1440 1442 1444 1447 1449 1452 1454 1457 1459 1462 1464
1451 1451 1450 1446 1441 1444 1436 1431 1429 1428 1429 1430 1428 1426 1426 1425 1423 1423 1422 1421 1421 1421 1421 1422 1422 1423 1425 1426 1428 1429 1431 1433 1435 1437 1439 1442 1444 1446 1449 1451 1454 1456 1459 1462
1445 1448 1450 1448 1443 1438 1434 1432 1432 1431 1430 1429 1427 1425 1423 1422 1421 1420 1420 1419 1418 1418 1419 1419 1420 1421 1422 1424 1425 1427 1429 1431 1433 1435 1437 1439 1441 1444 1446 1448 1451 1454 1456 1458
1443 1445 1448 1447 1444 1442 1439 1433 1430 1430 1431 1429 1427 1425 1423 1421 1423 1420 1417 1417 1416 1416 1416 1417 1417 1419 1420 1421 1423 1424 1426 1428 1430 1432 1434 1437 1439 1441 1443 1446 1448 1451 1454 1455
1446 1448 1449 1448 1448 1443 1440 1434 1430 1436 1436 1431 1427 1424 1422 1421 1420 1418 1416 1415 1415 1414 1415 1415 1416 1416 1418 1419 1420 1422 1423 1425 1428 1430 1432 1434 1436 1438 1441 1443 1446 1448 1450 1452
1450 1450 1450 1449 1451 1449 1440 1436 1438 1437 1433 1430 1426 1424 1421 1419 1417 1416 1414 1414 1413 1413 1413 1414 1414 1415 1416 1418 1419 1420 1422 1424 1426 1428 1429 1432 1434 1436 1438 1440 1442 1445 1447 1448
1451 1452 1451 1451 1452 1447 1443 1441 1438 1435 1432 1430 1427 1424 1421 1418 1416 1415 1414 1413 1413 1413 1413 1413 1414 1414 1415 1417 1418 1419 1420 1422 1424 1426 1427 1429 1431 1433 1435 1437 1439 1441 1443 1445
1454 1451 1451 1451 1448 1446 1444 1441 1438 1435 1432 1430 1427 1424 1421 1419 1417 1415 1414 1414 1413 1413 1413 1413 1414 1414 1415 1417 1418 1419 1419 1421 1422 1424 1426 1427 1429 1431 1433 1435 1437 1438 1439 1441
1458 1455 1454 1452 1449 1446 1443 1441 1438 1435 1432 1429 1426 1424 1422 1419 1418 1416 1415 1414 1413 1413 1413 1414 1414 1414 1415 1416 1418 1418 1419 1420 1421 1422 1424 1425 1427 1428 1430 1432 1433 1435 1436 1437
1460 1459 1458 1455 1452 1450 1446 1442 1439 1436 1432 1430 1427 1424 1422 1420 1418 1417 1416 1415 1414 1413 1413 1414 1414 1415 1415 1416 1417 1418 1419 1419 1420 1421 1422 1423 1425 1426 1427 1428 1430 1432 1433 1435